Total_Precipitation_Accumulation
0.00 0.01 0.01 0.01 0.02 0.05 0.06 0.09 0.18 0.25 0.16 0.19 0.33 0.52 0.73 0.91 1.06 1.13 1.29 1.28 1.47 1.73 1.88 2.26 2.61 3.05 3.50 4.01 4.75 5.37 5.79 5.77 5.57 5.19 4.80 4.52 4.04 3.73 3.47 3.18 2.95 2.73 2.48 2.38
0.01 0.02 0.02 0.03 0.03 0.04 0.07 0.11 0.23 0.25 0.16 0.17 0.33 0.56 0.84 0.94 0.91 0.94 1.16 1.27 1.35 1.54 1.84 2.18 2.69 2.98 3.32 3.84 4.40 4.81 4.80 4.47 4.34 4.32 4.21 3.95 3.96 3.81 3.67 3.41 3.18 2.79 2.61 2.47
0.03 0.04 0.02 0.03 0.04 0.05 0.07 0.10 0.16 0.21 0.23 0.25 0.36 0.71 0.99 1.03 0.90 0.85 0.88 1.00 1.13 1.28 1.48 1.82 2.37 2.67 2.85 3.31 3.66 3.68 3.56 3.39 3.43 3.48 3.44 3.52 3.73 3.73 3.68 3.52 3.24 2.95 2.80 2.68
0.02 0.03 0.03 0.04 0.06 0.06 0.10 0.07 0.08 0.11 0.21 0.43 0.49 0.89 1.20 1.29 1.20 0.98 0.88 1.00 1.08 1.19 1.25 1.54 1.86 2.08 2.33 2.55 2.69 2.68 2.77 2.78 2.80 2.83 2.82 2.74 2.76 2.94 3.15 3.36 3.40 3.34 3.11 2.86
0.03 0.04 0.05 0.05 0.06 0.07 0.07 0.06 0.07 0.11 0.16 0.31 0.43 0.70 1.14 1.41 1.56 1.23 0.99 0.90 0.87 1.03 1.27 1.46 1.56 1.71 1.80 1.82 1.94 2.01 2.30 2.61 2.71 2.76 2.85 2.75 2.47 2.45 2.50 2.64 2.78 2.79 2.78 2.62
0.04 0.05 0.05 0.05 0.05 0.07 0.07 0.11 0.18 0.27 0.39 0.62 0.59 0.65 1.04 1.29 1.43 1.15 0.96 0.89 0.77 0.79 0.98 1.19 1.44 1.52 1.46 1.43 1.59 1.81 2.11 2.48 2.69 2.74 2.70 2.66 2.56 2.51 2.43 2.44 2.48 2.36 2.34 2.28
0.15 0.13 0.10 0.06 0.07 0.08 0.09 0.16 0.51 0.87 1.18 1.21 0.71 0.69 0.94 0.98 0.92 0.93 0.81 0.76 0.80 0.74 0.73 0.74 0.93 1.16 1.13 1.10 1.25 1.51 1.70 1.99 2.21 2.31 2.30 2.23 2.33 2.43 2.31 2.18 2.11 2.04 1.90 1.81
0.19 0.23 0.14 0.09 0.07 0.07 0.08 0.12 0.37 0.63 0.81 0.93 0.75 1.10 1.24 0.92 0.77 0.68 0.57 0.54 0.61 0.58 0.53 0.51 0.58 0.72 0.94 0.95 1.00 1.11 1.35 1.55 1.74 1.83 1.94 2.04 2.21 2.30 2.25 2.40 2.22 2.07 1.78 1.64
0.08 0.11 0.10 0.09 0.09 0.09 0.09 0.08 0.13 0.22 0.37 0.63 0.89 1.12 1.11 0.94 0.89 0.70 0.52 0.44 0.45 0.43 0.41 0.43 0.50 0.68 0.70 0.69 0.75 0.86 1.08 1.26 1.42 1.57 1.73 1.80 1.79 1.80 1.93 2.12 2.14 1.99 1.90 1.71
0.05 0.05 0.07 0.09 0.10 0.11 0.10 0.09 0.11 0.17 0.30 0.49 0.80 1.16 1.23 1.14 1.02 0.85 0.74 0.54 0.43 0.41 0.40 0.41 0.44 0.52 0.51 0.50 0.65 0.87 1.05 1.07 1.28 1.58 1.76 1.66 1.65 1.57 1.70 1.78 1.83 1.89 1.84 1.82
0.04 0.04 0.06 0.09 0.12 0.14 0.14 0.12 0.11 0.14 0.17 0.31 0.68 0.90 0.80 0.88 0.85 0.82 0.70 0.59 0.51 0.45 0.45 0.45 0.45 0.44 0.55 0.50 0.59 0.76 0.88 1.00 1.28 1.59 1.79 1.78 1.63 1.62 1.74 1.68 1.66 1.78 1.81 1.79
0.05 0.04 0.07 0.11 0.16 0.16 0.15 0.14 0.14 0.20 0.19 0.22 0.37 0.61 0.49 0.59 0.71 0.73 0.54 0.48 0.45 0.36 0.38 0.36 0.33 0.38 0.38 0.39 0.51 0.80 1.12 1.46 1.61 1.85 2.10 2.09 1.80 1.63 1.57 1.46 1.47 1.66 1.84 1.87
0.05 0.05 0.11 0.28 0.32 0.24 0.17 0.13 0.14 0.16 0.15 0.17 0.37 0.58 0.46 0.51 0.62 0.62 0.52 0.44 0.43 0.44 0.39 0.39 0.35 0.43 0.40 0.39 0.43 0.57 0.71 1.04 1.35 1.66 1.92 1.86 1.62 1.47 1.43 1.44 1.50 1.65 1.78 1.79
0.06 0.05 0.09 0.25 0.31 0.31 0.26 0.19 0.16 0.13 0.15 0.20 0.26 0.49 0.51 0.56 0.49 0.51 0.44 0.41 0.49 0.58 0.50 0.45 0.43 0.41 0.41 0.42 0.40 0.49 0.55 0.62 0.82 1.21 1.48 1.50 1.37 1.32 1.35 1.41 1.43 1.43 1.47 1.54
0.07 0.06 0.05 0.06 0.15 0.21 0.23 0.21 0.17 0.13 0.12 0.24 0.27 0.35 0.45 0.58 0.54 0.52 0.50 0.42 0.42 0.50 0.49 0.47 0.46 0.50 0.53 0.59 0.58 0.56 0.57 0.58 0.72 1.10 1.32 1.29 1.27 1.28 1.25 1.25 1.33 1.40 1.46 1.51
0.10 0.10 0.09 0.10 0.14 0.15 0.16 0.19 0.17 0.11 0.10 0.10 0.15 0.29 0.34 0.50 0.59 0.61 0.59 0.54 0.51 0.52 0.47 0.44 0.39 0.49 0.58 0.64 0.65 0.62 0.61 0.63 0.74 1.00 1.22 1.22 1.20 1.18 1.13 1.18 1.27 1.44 1.54 1.69
0.16 0.15 0.15 0.15 0.19 0.17 0.24 0.20 0.17 0.15 0.14 0.14 0.22 0.35 0.33 0.39 0.51 0.59 0.62 0.58 0.53 0.55 0.46 0.41 0.45 0.59 0.79 0.71 0.69 0.73 0.67 0.66 0.79 0.99 1.17 1.26 1.23 1.25 1.23 1.21 1.37 1.57 1.72 1.87
0.29 0.27 0.25 0.21 0.25 0.36 0.28 0.21 0.22 0.24 0.27 0.28 0.31 0.35 0.37 0.49 0.55 0.66 0.83 0.69 0.54 0.56 0.57 0.60 0.58 0.67 0.74 0.70 0.72 0.75 0.74 0.73 0.84 1.04 1.25 1.34 1.29 1.34 1.43 1.43 1.52 1.74 1.95 2.08
0.34 0.39 0.36 0.31 0.34 0.41 0.37 0.29 0.34 0.37 0.42 0.44 0.47 0.41 0.46 0.52 0.62 0.72 0.70 0.67 0.71 0.70 0.68 0.72 0.78 0.80 0.86 0.87 0.83 0.80 0.87 0.91 1.00 1.09 1.27 1.38 1.43 1.52 1.54 1.58 1.76 1.97 2.16 2.20
0.36 0.45 0.49 0.44 0.52 0.58 0.57 0.42 0.36 0.43 0.72 0.59 0.61 0.60 0.54 0.56 0.80 0.87 0.73 0.67 0.68 0.77 0.85 0.81 0.86 0.88 0.91 0.94 0.98 0.99 1.05 1.18 1.33 1.42 1.49 1.67 1.84 2.00 2.08 2.13 2.20 2.25 2.32 2.24
0.64 0.61 0.60 0.64 0.75 0.69 0.53 0.47 0.42 0.80 1.12 0.84 0.81 0.79 0.70 0.81 0.90 0.88 0.76 0.70 0.65 0.68 0.79 0.83 0.82 0.90 0.98 0.99 1.10 1.25 1.33 1.44 1.57 1.71 1.79 1.98 2.27 2.44 2.44 2.45 2.40 2.32 2.33 2.34
0.85 0.81 0.81 0.86 1.08 1.13 0.62 0.58 0.89 1.12 0.94 0.97 1.00 0.98 0.91 0.88 0.93 0.94 0.90 0.74 0.66 0.67 0.73 0.81 0.85 0.89 1.03 1.25 1.43 1.66 1.75 1.70 1.79 1.95 2.10 2.29 2.52 2.46 2.38 2.56 2.50 2.47 2.54 2.52
0.90 0.96 1.04 1.12 1.31 1.11 0.76 0.88 1.07 1.05 1.00 1.02 1.02 0.97 0.87 0.82 0.95 0.90 0.82 0.79 0.66 0.64 0.71 0.78 0.85 0.95 1.07 1.31 1.66 1.90 1.97 2.07 2.09 2.15 2.23 2.29 2.39 2.57 2.73 2.80 2.69 2.62 2.60 2.54
1.05 0.97 1.13 1.33 1.42 1.20 1.05 1.03 0.99 1.03 1.03 0.97 0.90 0.85 0.86 0.80 0.80 0.79 0.74 0.72 0.68 0.68 0.75 0.79 0.86 1.03 1.25 1.44 1.72 1.87 1.92 1.97 2.00 2.02 2.01 2.08 2.22 2.37 2.46 2.70 2.76 2.67 2.55 2.48
1.17 1.11 1.31 1.67 1.74 1.62 1.50 1.27 1.11 1.08 1.02 1.03 0.99 0.92 0.88 0.82 0.76 0.71 0.70 0.68 0.68 0.68 0.78 0.84 0.92 1.03 1.16 1.36 1.54 1.62 1.77 1.85 1.95 1.96 1.91 1.90 1.92 2.04 2.13 2.23 2.35 2.33 2.32 2.14
1.23 1.31 1.54 1.88 1.66 1.62 1.76 1.51 1.30 1.22 1.19 1.23 1.26 1.22 1.07 0.93 0.86 0.81 0.78 0.70 0.66 0.64 0.73 0.84 0.95 1.06 1.15 1.31 1.51 1.59 1.71 1.80 1.84 1.82 1.75 1.76 1.78 1.85 1.90 1.90 1.85 1.69 1.62 1.48